Content
SEND FEEDBACK

Daily
Averages
Monthly
Summary
United States of America

CRESTED BUTTE, COLORADO


Home > North America > United States > Colorado
Elevation: 9277 feet     Latitude: 38 52N     Longitude: 106 58W

WEATHER
 
SELECT A DAY
Number of Records: 448,013;   Date Range: 1/1/95 - 8/30/14
 
SHARE

PRINT THIS DATA

[ ← Previous Day ]
WEATHER ALMANAC - MAY 4, 2013
[ Next Day → ]
[ °C ]   °F
Weather ElementAverageHighLow
Temperature43.9 °F60.8 °F (1:35 pm)21.2 °F (6:15 am)
Dewpoint15.5 °F26.6 °F (10:15 pm)8.6 °F (2:15 am)
Humidity37 %74 % (5:35 am)13 % (1:35 pm)
Barometer30.11 in30.18 in (11:35 pm)30.03 in (3:55 pm)
Wind Speed6.6 mph28.8 mph (9:55 pm)
Wind Gust38 mph (9:55 pm)
Weather ElementAverage
Visibility10 mi
Wind DirectionENE (81.3 °)

Weather ElementTotal
Precipitation---
Heating Degree Days24 (Base 65)
Averaged from 70 records on May 4, 2013
WEATHER CONDITIONS BREAKOUT
WIND DIRECTION BREAKOUT
WEATHER BY HOUR - MAY 4, 2013
[ °C ]   °F
Local TimeTemperatureDewpointHumidityBarometerVisibilityWind DirectionWind SpeedGust SpeedPrecipitationEventsConditions
12:35 AM35.6 °F12.2 °F38 %30.14 in10.0 miCalmClear
12:55 AM33.8 °F10.4 °F38 %30.13 in10.0 miNW (310°)3.5 mphClear
1:15 AM33.8 °F15.8 °F48 %30.13 in10.0 miNorth (10°)3.5 mphClear
1:35 AM33.8 °F14.0 °F44 %30.13 in10.0 miNNE (20°)4.6 mphClear
1:55 AM30.2 °F14.0 °F51 %30.12 in10.0 miNE (50°)4.6 mphClear
2:15 AM28.4 °F8.6 °F43 %30.12 in10.0 miCalmClear
2:35 AM30.2 °F12.2 °F47 %30.12 in10.0 miNE (40°)3.5 mphClear
2:55 AM26.6 °F15.8 °F64 %30.12 in10.0 miEast (80°)3.5 mphClear
3:15 AM26.6 °F14.0 °F59 %30.12 in10.0 miSSE (160°)4.6 mphClear
3:35 AM26.6 °F15.8 °F64 %30.12 in10.0 miCalmClear
3:55 AM26.6 °F12.2 °F55 %30.12 in10.0 miCalmClear
4:15 AM28.4 °F12.2 °F51 %30.13 in10.0 miCalmClear
4:35 AM23.0 °F12.2 °F63 %30.13 in10.0 miCalmClear
4:55 AM24.8 °F10.4 °F54 %30.13 in10.0 miCalmClear
5:15 AM23.0 °F14.0 °F68 %30.13 in10.0 miCalmClear
5:35 AM24.8 °F17.6 °F74 %30.13 in10.0 miCalmClear
5:55 AM23.0 °F15.8 °F74 %30.14 in10.0 miCalmClear
6:15 AM21.2 °F14.0 °F74 %30.14 in10.0 miCalmClear
6:35 AM21.2 °F12.2 °F68 %30.14 in10.0 miCalmClear
6:55 AM24.8 °F12.2 °F59 %30.15 in10.0 miNE (40°)3.5 mphClear
7:15 AM26.6 °F12.2 °F55 %30.15 in10.0 miCalmClear
7:35 AM28.4 °F14.0 °F55 %30.16 in10.0 miCalmClear
7:55 AM30.2 °F15.8 °F55 %30.15 in10.0 miCalmClear
8:15 AM33.8 °F17.6 °F52 %30.15 in10.0 miCalmClear
8:35 AM35.6 °F15.8 °F44 %30.15 in10.0 miCalmClear
8:55 AM37.4 °F15.8 °F41 %30.14 in10.0 miCalmClear
9:15 AM39.2 °F15.8 °F39 %30.14 in10.0 miNE (40°)4.6 mphClear
9:35 AM42.8 °F17.6 °F36 %30.13 in10.0 miNNE (20°)6.9 mphClear
9:55 AM46.4 °F17.6 °F32 %30.12 in10.0 miNorth (360°)4.6 mphClear
10:15 AM48.2 °F17.6 °F30 %30.12 in10.0 miNW (320°)3.5 mphClear
10:35 AM50.0 °F17.6 °F28 %30.11 in10.0 miCalmClear
10:55 AM51.8 °F14.0 °F22 %30.11 in10.0 miNE (40°)5.8 mphClear
11:15 AM53.6 °F14.0 °F21 %30.10 in10.0 miSSW (200°)3.5 mphClear
11:55 AM55.4 °F10.4 °F17 %30.09 in10.0 miNE (40°)3.5 mphClear
12:15 PM57.2 °F10.4 °F16 %30.08 in10.0 miCalmClear
12:35 PM57.2 °F10.4 °F16 %30.08 in10.0 miSouth (180°)6.9 mphPartly Cloudy
12:55 PM57.2 °F8.6 °F14 %30.08 in10.0 miWNW (290°)5.8 mphClear
1:15 PM59.0 °F8.6 °F14 %30.07 in10.0 miWNW (300°)8.1 mphClear
1:35 PM60.8 °F8.6 °F13 %30.06 in10.0 miWNW (290°)5.8 mph16.1 mphClear
1:55 PM60.8 °F8.6 °F13 %30.06 in10.0 miNNE (20°)9.2 mphClear
2:15 PM60.8 °F8.6 °F13 %30.05 in10.0 miNorth (10°)5.8 mphClear
2:35 PM60.8 °F8.6 °F13 %30.05 in10.0 miNNE (30°)9.2 mph16.1 mphMostly Cloudy
2:55 PM60.8 °F10.4 °F14 %30.05 in10.0 miEast (80°)6.9 mph21.9 mphScattered Clouds
3:15 PM59.0 °F10.4 °F15 %30.04 in10.0 miENE (60°)5.8 mphMostly Cloudy
3:35 PM60.8 °F10.4 °F14 %30.04 in10.0 miWNW (290°)6.9 mphScattered Clouds
3:55 PM60.8 °F10.4 °F14 %30.03 in10.0 miNE (40°)12.7 mph19.6 mphPartly Cloudy
4:15 PM59.0 °F10.4 °F15 %30.04 in10.0 miNorth (350°)11.5 mphMostly Cloudy
4:35 PM59.0 °F10.4 °F15 %30.05 in10.0 miEast (80°)13.8 mph20.7 mphOvercast
4:55 PM57.2 °F15.8 °F20 %30.05 in10.0 miEast (90°)15.0 mph27.6 mphOvercast
5:15 PM57.2 °F12.2 °F17 %30.06 in10.0 miEast (80°)12.7 mphMostly Cloudy
5:35 PM55.4 °F15.8 °F21 %30.08 in10.0 miESE (110°)16.1 mph23.0 mphOvercast
5:55 PM55.4 °F17.6 °F23 %30.08 in10.0 miCalmMostly Cloudy
6:15 PM55.4 °F15.8 °F21 %30.08 in10.0 miSE (130°)4.6 mphPartly Cloudy
6:35 PM55.4 °F17.6 °F23 %30.08 in10.0 miSouth (190°)10.4 mph17.3 mphMostly Cloudy
6:55 PM55.4 °F19.4 °F25 %30.09 in10.0 miESE (120°)20.7 mph25.3 mphMostly Cloudy
7:15 PM53.6 °F19.4 °F26 %30.09 in10.0 miEast (100°)6.9 mphScattered Clouds
7:35 PM53.6 °F21.2 °F28 %30.09 in10.0 miEast (80°)9.2 mphClear
7:55 PM53.6 °F19.4 °F26 %30.10 in10.0 miEast (80°)17.3 mphMostly Cloudy
8:15 PM51.8 °F21.2 °F30 %30.11 in10.0 miEast (80°)17.3 mph27.6 mphMostly Cloudy
8:35 PM48.2 °F23.0 °F37 %30.11 in10.0 miEast (80°)13.8 mphClear
8:55 PM48.2 °F23.0 °F37 %30.13 in10.0 miENE (70°)11.5 mph19.6 mphPartly Cloudy
9:15 PM48.2 °F23.0 °F37 %30.14 in10.0 miENE (60°)4.6 mphPartly Cloudy
9:35 PM48.2 °F24.8 °F40 %30.14 in10.0 miEast (100°)25.3 mph31.1 mphScattered Clouds
9:55 PM48.2 °F24.8 °F40 %30.15 in10.0 miEast (90°)28.8 mph38.0 mphMostly Cloudy
10:15 PM46.4 °F26.6 °F46 %30.16 in10.0 miESE (110°)23.0 mph32.2 mphOvercast
10:35 PM46.4 °F26.6 °F46 %30.17 in10.0 miESE (110°)20.7 mphOvercast
10:55 PM44.6 °F26.6 °F49 %30.17 in10.0 miEast (100°)16.1 mphMostly Cloudy
11:15 PM44.6 °F24.8 °F46 %30.17 in10.0 miEast (90°)11.5 mph19.6 mphPartly Cloudy
11:35 PM44.6 °F24.8 °F46 %30.18 in10.0 miENE (70°)6.9 mph16.1 mphPartly Cloudy
11:55 PM44.6 °F24.8 °F46 %30.18 in10.0 miCalmClear
Hourly data recorded from KGUC, located miles away from Crested Butte, Colorado







STORIES FROM OUR PARTNERS